Probability
0 0 0 0 0 0 0 0 0 0 0 0 0 0 0 0 0 0 0 0 0 0 0 0 0 0 0 0 0 0 0 0 0 0 0 0 0 0 0 0 0 0 0
0 0 0 0 0 0 0 0 0 0 0 0 0 0 0 0 0 0 0 0 0 0 0 0 0 0 0 0 0 0 0 0 0 0 0 0 0 0 0 0 0 0 0
0 0 0 0 0 0 0 0 0 0 0 0 0 0 0 0 0 0 0 0 0 0 0 0 0 0 0 0 0 0 0 0 0 0 0 0 0 0 0 0 0 0 0
0 0 0 0 0 0 0 0 0 0 0 0 0 0 0 0 0 0 0 0 0 0 0 0 0 0 0 0 0 0 0 0 0 0 0 0 0 0 0 0 0 0 0
0 0 0 0 0 0 0 0 0 0 0 0 0 0 0 0 0 0 0 0 0 0 0 0 0 0 0 0 0 0 0 0 0 0 0 0 0 0 0 0 0 0 0
0 0 0 0 0 0 0 0 0 0 0 0 0 0 0 0 0 0 0 0 0 0 0 0 0 0 0 0 0 0 0 0 0 0 0 0 0 0 0 0 0 0 0
0 0 0 0 0 0 0 0 0 0 0 0 0 0 0 0 0 0 0 0 0 0 0 0 0 0 0 0 0 0 0 0 0 0 0 0 0 0 0 0 0 0 0
0 0 0 0 0 0 0 0 0 0 0 0 0 0 0 0 0 0 0 0 0 0 0 0 0 0 0 0 0 0 0 0 0 0 0 0 0 0 0 0 0 0 0
0 0 0 0 0 0 0 0 0 0 0 0 0 0 0 0 0 0 0 0 0 0 0 0 0 0 0 0 0 0 0 0 0 0 0 0 0 0 0 0 0 0 0
0 0 0 0 0 0 0 0 0 0 0 0 0 0 0 0 0 0 0 0 0 0 0 0 0 0 0 0 0 0 0 0 0 0 0 0 0 0 0 0 0 0 0
0 0 0 0 0 0 0 0 0 0 0 0 0 0 0 0 0 0 0 0 0 0 0 0 0 0 0 0 0 0 0 0 0 0 0 0 0 0 0 0 0 0 0
0 0 0 0 0 0 0 0 0 0 0 0 0 0 0 0 0 0 0 0 0 0 0 0 0 0 0 0 0 0 0 0 0 0 0 0 0 0 0 0 0 0 0
0 0 0 0 0 0 0 0 0 0 0 0 0 0 0 0 0 0 0 0 0 0 0 0 0 0 0 0 0 0 0 0 0 0 0 0 0 0 0 0 0 0 0
0 0 0 0 0 0 0 0 0 0 0 0 0 0 0 0 0 0 0 0 0 0 0 0 0 0 0 0 0 0 0 0 0 0 0 0 0 0 0 0 0 0 0
0 0 0 0 0 0 0 0 0 0 0 0 0 0 0 0 0 0 0 0 0 0 0 0 0 0 0 0 0 0 0 0 0 0 0 0 0 0 0 0 0 0 0
0 0 0 0 0 0 0 0 0 0 0 0 0 0 0 0 0 0 0 0 0 0 0 0 0 0 0 0 0 0 0 0 0 0 0 0 0 0 0 0 0 0 0
0 0 0 0 0 0 0 0 0 0 0 0 0 0 0 0 0 0 0 0 0 0 0 0 0 0 0 0 0 0 0 0 0 0 0 0 0 0 0 0 0 0 0
0 0 0 0 0 0 0 0 0 0 0 0 0 0 0 0 0 0 0 0 0 0 0 0 0 0 0 0 0 0 0 0 0 0 0 0 0 0 0 0 0 0 0
0 0 0 0 0 0 0 0 0 0 0 0 0 0 0 0 0 0 0 0 0 0 0 0 0 0 0 0 0 0 0 0 0 0 0 0 0 0 0 0 0 0 0
0 0 0 0 0 0 0 0 0 0 0 0 0 0 0 0 0 0 0 0 0 0 0 0 0 0 0 0 0 0 0 0 0 0 0 0 0 0 0 0 0 0 0
0 0 0 0 0 0 0 0 0 0 0 0 0 0 0 0 0 0 0 0 0 0 0 0 0 0 0 0 0 0 0 0 0 0 0 0 0 0 0 0 0 0 0
0 0 0 0 0 0 0 0 0 0 0 0 0 0 0 0 0 0 0 0 0 0 0 0 0 0 0 0 0 0 0 0 0 0 0 0 0 0 0 0 0 0 0
0 0 0 0 0 0 0 0 0 0 0 0 0 0 0 0 0 0 0 0 0 0 0 0 0 0 0 0 0 0 0 0 0 0 0 0 0 0 0 0 0 0 0
0 0 0 0 0 0 0 0 0 0 0 0 0 0 0 0 0 0 0 0 0 0 0 0 0 0 0 0 0 0 0 0 0 0 0 0 0 0 0 0 0 0 0
0 0 0 0 0 0 0 0 0 0 0 0 0 0 0 0 0 0 0 0 0 0 0 0 0 0 0 0 0 0 0 0 0 0 0 0 0 0 0 0 0 0 0
0 0 0 0 0 0 0 0 0 0 0 0 0 0 0 0 0 0 0 0 0 0 0 0 0 0 0 0 0 0 0 0 0 0 0 0 0 0 0 0 0 0 0
Wind_Speed
5 5 4 5 5 5 5 6 6 6 6 7 7 7 7 7 7 7 7 7 8 8 8 8 9 8 7 6 6 6 6 6 9 7 4 4 4 5 5 4 5 5 6
4 4 4 4 4 5 6 6 6 6 6 7 7 7 7 7 7 7 8 8 9 9 9 9 9 8 9 7 6 7 6 6 7 9 6 4 5 5 4 4 5 4 4
3 3 4 4 4 5 6 6 6 6 6 6 6 7 7 8 7 8 8 9 9 9 9 9 10 9 9 7 7 7 6 6 6 6 6 4 4 3 3 4 4 3 3
3 3 4 4 5 6 6 6 6 6 6 6 6 7 7 7 8 8 8 8 8 9 9 9 9 9 10 9 8 8 7 6 6 5 5 4 4 3 3 3 3 2 2
3 3 4 5 5 5 5 5 5 6 6 6 6 7 7 7 7 8 7 8 8 8 8 8 9 10 12 10 8 7 7 6 5 5 5 5 4 4 4 3 3 2 2
3 4 4 4 5 5 5 5 5 6 6 6 6 7 7 7 12 14 11 7 7 7 8 8 8 9 11 14 15 13 11 9 8 7 6 7 7 5 3 3 3 3 2
3 4 4 4 5 5 6 5 5 5 5 6 7 7 8 10 14 14 14 8 7 7 7 7 7 7 9 7 10 12 12 14 13 9 8 8 7 5 4 4 4 3 3
3 4 4 4 5 5 5 5 6 5 5 6 7 7 7 10 14 13 13 8 6 7 7 7 6 6 6 6 6 6 6 7 8 7 7 7 6 5 5 5 4 2 1
4 4 4 5 5 5 5 6 5 5 6 6 6 6 7 9 12 12 12 5 5 6 6 6 6 6 9 10 6 5 5 5 6 8 7 7 7 7 6 3 4 4 1
5 5 5 5 5 6 6 6 5 5 6 6 6 6 7 7 10 12 12 5 5 5 5 5 7 7 8 9 6 5 6 5 3 2 2 2 3 3 4 4 5 5 3
4 4 5 5 5 5 5 5 5 6 6 6 7 6 6 8 10 11 11 5 4 5 5 4 4 7 9 9 8 5 7 5 3 3 2 2 2 2 1 1 2 3 3
4 4 4 4 4 4 4 5 5 5 6 6 6 7 5 5 8 9 11 9 8 5 5 4 3 7 8 8 6 5 5 4 1 2 2 2 2 2 1 2 3 3 2
4 4 5 5 4 4 4 5 5 4 5 6 6 6 6 5 5 10 11 10 10 6 4 6 6 7 8 5 4 4 3 1 2 2 2 2 2 3 3 3 4 5 4
4 5 4 4 5 4 4 4 4 4 5 6 6 6 6 6 5 4 4 5 7 5 4 5 6 6 4 3 3 2 0 1 3 3 3 3 3 3 2 2 3 3 3
4 4 4 4 4 4 4 4 4 4 5 6 5 5 6 6 7 10 8 5 4 4 4 3 2 2 2 2 2 2 1 1 2 3 3 3 3 3 2 2 3 3 3
4 4 3 3 4 4 4 5 6 7 10 10 9 8 6 8 11 11 11 10 8 7 4 2 2 2 2 2 1 1 1 1 2 3 3 3 3 3 3 3 3 3 4
3 4 3 4 4 4 4 5 6 7 8 9 9 9 9 10 11 11 10 9 8 7 3 2 2 2 2 1 1 1 0 1 2 3 3 4 4 4 4 4 3 4 4
3 4 4 3 3 4 4 4 4 5 7 6 7 9 10 10 10 11 10 7 5 4 2 2 2 2 2 1 1 1 0 1 2 3 3 3 4 4 4 4 4 4 4
4 3 3 3 3 4 4 4 4 5 5 6 6 7 9 10 10 10 8 4 3 3 3 2 2 2 2 1 1 0 1 1 2 3 3 4 4 4 4 4 4 6 4
3 5 5 4 3 3 3 4 4 4 5 5 5 6 6 6 5 6 5 4 3 3 3 3 3 2 1 1 1 0 1 1 2 3 4 4 4 4 5 5 4 4 4
3 4 6 4 3 3 3 3 4 4 4 4 5 6 8 4 4 5 4 4 4 4 4 3 3 2 1 1 0 0 1 1 2 3 4 4 4 4 4 4 4 4 5
3 3 3 3 3 3 3 3 3 4 4 5 5 6 8 4 3 4 4 4 4 3 3 3 3 2 1 1 0 0 1 2 2 3 4 4 4 4 4 4 4 5 6
3 3 3 3 3 5 5 4 3 4 4 4 5 5 5 4 4 4 4 4 4 4 4 3 3 2 2 1 1 0 1 2 2 3 4 4 4 4 5 5 6 6 7
3 3 3 3 3 3 4 4 4 4 4 4 4 4 4 4 4 4 4 4 4 4 4 3 3 3 3 2 1 1 1 2 2 2 5 6 5 5 5 5 5 7 7
3 3 3 3 3 4 4 4 4 4 4 4 4 4 4 4 4 4 4 4 4 4 5 4 3 3 3 3 2 1 3 4 4 3 4 5 6 5 6 6 6 7 7
3 3 3 3 3 4 4 4 4 4 4 4 4 4 3 3 4 4 4 4 4 4 4 4 5 5 4 2 2 3 4 5 6 6 5 5 6 6 6 6 8 8 9
Wind_Direction
266 264 269 274 274 273 271 271 270 271 269 265 266 267 266 265 263 258 258 258 252 254 249 243 245 246 245 245 235 231 235 237 255 268 259 249 234 237 252 246 242 232 238
265 267 269 275 280 282 280 279 277 276 272 267 266 265 265 265 262 258 259 258 254 254 253 247 248 245 241 241 238 234 236 239 247 263 269 254 247 230 236 251 254 242 234
271 272 277 278 281 283 284 284 284 282 277 272 269 267 267 266 266 262 259 259 255 253 251 250 248 242 241 240 239 236 235 241 241 249 266 261 256 237 234 255 244 243 241
284 280 280 279 278 280 286 288 286 286 283 278 273 270 269 269 267 266 263 259 258 257 252 249 251 242 239 237 238 236 233 236 237 240 254 260 252 235 220 232 248 238 243
288 286 281 283 284 287 290 292 289 286 286 283 282 283 282 278 271 274 270 265 263 265 262 254 250 252 250 244 242 233 228 232 233 235 241 250 247 227 225 222 235 260 267
280 279 283 287 292 294 295 295 294 291 291 291 289 287 287 285 288 286 285 274 268 264 266 263 257 255 257 254 254 249 237 232 231 233 240 238 242 234 232 216 213 231 254
281 284 289 293 294 294 296 298 295 295 294 292 289 288 287 288 292 290 290 285 275 269 265 265 263 257 260 252 254 256 249 246 243 237 235 239 235 224 213 217 216 222 239
291 294 296 296 293 294 294 292 294 293 291 292 293 290 289 291 297 297 298 291 281 276 270 265 261 260 254 253 250 245 241 243 245 241 235 238 234 220 210 211 186 145 97
292 291 292 293 296 299 295 292 292 295 296 294 294 295 293 292 296 298 300 286 282 282 277 267 258 255 253 259 256 250 250 250 249 241 238 237 232 220 205 175 163 155 177
290 290 293 292 293 295 294 297 299 298 296 299 300 298 294 292 294 301 303 293 290 290 287 275 264 261 259 263 251 240 246 246 227 217 222 227 211 193 215 210 182 176 172
302 303 299 297 296 296 300 303 305 305 306 306 304 302 298 295 297 302 303 296 288 292 290 287 276 271 272 276 270 251 242 242 211 191 182 169 150 143 156 183 175 174 175
319 315 310 306 306 310 310 309 309 309 309 310 309 308 306 303 309 311 310 305 301 296 294 295 294 290 290 291 286 257 246 247 200 177 166 152 143 139 123 101 101 94 93
327 318 318 321 318 315 312 310 313 313 311 312 312 311 314 315 315 319 324 326 320 308 299 298 300 296 296 296 294 277 257 202 157 162 154 151 149 149 133 109 98 91 74
324 319 320 322 323 325 322 315 314 313 310 309 310 311 314 317 321 324 324 325 326 325 323 322 327 331 328 328 327 322 311 147 154 155 143 137 130 128 129 137 130 117 91
324 318 321 322 322 323 319 313 310 302 299 302 301 303 310 314 318 324 323 322 321 314 319 331 349 349 351 356 0 5 72 123 141 139 141 142 140 131 127 129 128 118 123
324 324 322 319 317 319 322 322 320 313 317 316 313 309 310 311 317 323 327 328 326 321 329 348 343 336 327 330 341 346 36 129 142 145 150 153 148 141 130 118 120 124 126
312 313 313 313 316 318 319 318 320 325 326 327 328 326 324 325 328 329 330 334 335 333 341 338 328 325 328 334 336 331 298 168 153 151 153 150 147 142 136 133 132 126 122
315 314 316 311 312 315 315 314 314 318 324 327 332 337 338 337 338 335 332 337 343 347 350 333 325 328 333 336 335 321 360 141 139 141 140 140 143 142 139 139 139 138 134
318 316 314 311 311 311 312 315 318 320 319 321 328 333 339 341 344 345 344 350 343 341 341 337 330 330 332 333 336 336 126 141 143 141 141 142 143 141 140 140 138 137 135
322 323 323 317 314 317 320 323 324 323 321 324 326 326 330 338 343 344 349 351 346 337 335 335 332 335 332 322 334 60 106 122 141 142 141 140 142 141 140 139 139 139 132
320 323 325 324 322 321 319 318 317 318 320 321 319 324 329 331 332 335 340 345 344 338 338 338 331 330 326 323 16 97 117 118 138 140 138 139 138 134 132 132 131 131 126
318 316 319 318 318 319 314 311 314 317 318 316 315 322 330 334 337 338 340 340 338 336 334 332 328 325 319 312 289 138 122 119 119 129 135 136 135 131 131 130 127 124 122
319 316 317 318 315 316 319 319 318 316 313 313 315 319 328 337 339 339 337 338 340 340 338 334 334 340 348 357 346 244 166 158 152 148 142 136 132 130 130 130 130 130 127
316 314 311 312 314 313 313 315 315 313 313 313 318 322 327 332 337 336 336 337 340 342 343 342 344 346 351 354 2 6 74 116 119 130 136 134 131 129 128 128 129 130 129
318 317 317 316 313 312 312 312 314 316 317 317 320 321 325 332 335 335 337 340 343 348 348 346 347 350 358 1 8 53 103 106 107 113 120 126 128 130 132 131 131 128 127
324 323 319 315 312 311 310 311 315 317 317 316 317 320 324 327 329 332 337 342 346 348 348 349 352 353 355 8 40 82 100 105 110 113 118 124 126 129 131 129 129 128 128